Regional Weather Roundup
Issued by NWS

Home | Current Version | Previous Version | Text Only | Print | Product List | Glossary Off
Versions: 1 2 3 4 5 6 7 8 9 10 11 12 13 14 15 16 17 18 19 20 21 22 23 24 25 26 27 28 29 30 31 32 33 34 35 36 37 38 39 40 41 42 43 44 45 46 47 48 49 50

314
ASUS43 KFSD 221710
RWRSD

WEATHER ROUNDUP FOR SOUTH DAKOTA
NATIONAL WEATHER SERVICE SIOUX FALLS SD
1200 PM CDT SAT JUL 22 2017

NOTE: "FAIR" INDICATES FEW OR NO CLOUDS BELOW 12,000 FEET WITH NO
SIGNIFICANT WEATHER AND/OR OBSTRUCTIONS TO VISIBILITY.


SDZ001>005-009-010-012>017-221800-
NORTHWEST AND NORTH CENTRAL SOUTH DAKOTA

CITY           SKY/WX    TMP DP  RH WIND       PRES   REMARKS
BUFFALO          N/A     83  39  21 NW16      30.03S
FAITH            N/A     86  40  19 NW9       30.03F
MOBRIDGE       SUNNY     83  63  50 N8        29.95S
$$

SDZ012>016-024>037-041>051-057-063-072>074-221800-
SOUTHWEST AND SOUTH CENTRAL SOUTH DAKOTA

CITY           SKY/WX    TMP DP  RH WIND       PRES   REMARKS
RAPID CTY ARPT SUNNY     83  43  24 N12       30.08S
PIERRE         SUNNY     88  61  40 N15       29.95R
CUSTER         PTSUNNY   84  34  16 VRB7      30.21R
ELLSWORTH AFB  PTSUNNY   81  43  26 N12       30.08R
PHILIP         SUNNY     92  37  14 N8        30.00R
PINE RIDGE     MOSUNNY   86  56  35 MISG      30.07R
SPEARFISH      LGT RAIN  81  37  21 VRB5      30.14S
WINNER         FAIR      85  66  53 N7        29.99R
$$

SDZ004>011-016>023-039-040-221800-
NORTHEAST SOUTH DAKOTA

CITY           SKY/WX    TMP DP  RH WIND       PRES   REMARKS
ABERDEEN       SUNNY     82  68  62 N6        29.92S
WATERTOWN      MOSUNNY   78  70  76 W9        29.92R
BROOKINGS      SUNNY     80  70  71 NW7       29.92S
SISSETON         N/A     84  70  62 NW14      29.87S
$$

SDZ017-020-022-023-036>040-048>070-221800-
SOUTHEAST SOUTH DAKOTA

CITY           SKY/WX    TMP DP  RH WIND       PRES   REMARKS
SIOUX FALLS    CLOUDY    82  72  71 W8        29.92S
HURON          CLOUDY    79  71  76 NW7       29.93S
CHAMBERLAIN    MOSUNNY   85  68  55 N3        29.96R
MITCHELL       MOSUNNY   83  70  64 N7        29.93F
YANKTON        CLOUDY    78  72  81 NW10      29.93S
$$

ABBREVIATIONS USED IN REMARKS
   TC - TEMPERATURE IN CELSIUS
  WCI - WIND CHILL INDEX
   HX - HEAT INDEX
  VSB - VISIBILITY





USA.gov is the U.S. government's official web portal to all federal, state and local government web resources and services.